Temperature
20 20 20 19 19 19 19 18 18 18 17 15 15 14 14 14 13 13 12 12 11 11 10 10 10 9 9 9 9 9 9 9 8 8 9 9 8 8 8 8 7 7 7
19 20 20 19 19 19 19 19 19 18 17 17 17 16 15 14 13 13 12 12 11 11 10 10 10 9 9 9 9 9 9 9 8 8 8 8 8 8 8 8 7 7 7
19 20 20 20 20 19 19 19 19 19 18 18 16 15 13 12 12 12 12 12 11 11 10 10 10 10 9 9 9 9 9 9 9 8 8 8 8 8 8 7 7 7 7
19 20 20 20 20 20 20 19 19 19 19 18 17 16 14 14 14 14 13 12 12 11 11 10 10 10 9 9 9 9 9 9 9 8 8 8 8 8 8 7 7 7 6
19 20 20 20 20 20 20 20 19 19 19 18 17 17 16 16 15 14 13 12 11 11 11 10 10 10 10 9 9 9 9 9 9 8 8 8 8 8 7 7 7 7 6
19 19 19 20 20 20 20 20 19 19 19 18 17 17 17 16 15 14 13 12 12 11 11 10 10 10 10 9 9 9 9 9 9 8 8 8 8 8 7 7 7 7 7
19 19 19 19 19 20 19 19 19 19 19 18 17 17 17 16 15 15 14 13 12 11 11 10 10 10 10 10 9 9 9 9 9 8 8 8 8 7 7 7 6 6 6
18 19 19 19 19 19 19 19 19 19 18 18 17 16 16 15 15 14 14 13 13 12 12 11 10 10 10 10 9 9 9 9 8 8 8 8 8 7 7 6 6 5 5
18 18 19 19 19 19 19 19 18 18 18 17 16 16 15 15 14 14 13 13 12 12 11 11 10 10 10 10 9 9 9 9 8 8 8 8 7 7 7 6 6 5 4
18 18 18 18 18 18 18 18 18 17 17 16 16 15 15 14 14 13 13 12 12 11 11 11 10 10 10 10 9 9 9 8 8 8 8 8 7 7 6 6 5 5 4
18 18 18 18 18 18 18 17 17 17 16 16 15 15 14 13 13 12 12 12 11 11 11 10 10 10 9 9 9 9 9 8 8 8 8 7 7 6 6 6 5 5 4
17 17 17 17 17 17 17 17 16 16 16 15 15 14 13 12 12 12 11 11 11 10 10 10 10 9 9 9 9 9 8 8 8 8 7 7 7 6 6 5 5 4 4
17 17 17 17 17 17 16 16 16 16 15 15 14 13 12 12 11 11 11 10 10 10 10 9 9 9 9 9 9 8 8 8 8 7 7 7 6 6 5 5 4 4 3
16 17 17 17 17 17 16 16 16 15 15 14 13 12 12 11 11 11 10 10 10 9 9 9 9 9 9 8 8 8 8 8 7 7 6 6 6 5 4 4 4 3 2
16 17 17 17 17 16 16 16 15 15 14 14 13 12 12 11 11 10 10 10 9 9 9 9 9 9 8 8 8 8 7 7 7 6 6 5 5 4 4 3 3 2 2
16 17 17 17 17 17 16 16 15 15 14 13 13 12 11 11 10 10 9 9 9 9 9 9 8 8 8 8 7 7 7 7 6 6 5 5 4 4 3 3 2 2 1
17 17 17 17 17 17 17 16 15 15 14 13 12 11 11 10 10 9 9 9 9 8 8 8 8 8 7 7 7 7 6 6 6 5 5 4 4 3 3 2 1 1 0
17 17 17 17 17 17 16 16 15 14 14 13 12 11 10 10 9 9 8 8 8 8 8 8 8 7 7 7 6 6 6 5 5 5 4 4 3 3 2 1 1 0 -0
17 17 17 17 17 17 16 15 15 14 13 12 12 11 10 9 9 8 8 8 8 8 7 7 7 7 6 6 6 5 5 5 4 4 3 3 2 2 1 0 -0 -1 -1
16 17 17 17 17 16 16 15 15 14 13 12 11 11 10 9 9 8 8 8 7 7 7 6 6 6 6 5 5 5 4 4 4 3 3 2 1 1 0 -1 -1 -1 -2
16 16 16 16 16 16 16 15 15 14 13 12 11 10 9 9 8 8 7 7 7 6 6 6 6 5 5 5 4 4 4 3 3 2 2 1 1 -0 -1 -1 -2 -2 -3
15 15 16 16 16 16 15 15 14 13 12 11 10 10 9 8 8 7 7 7 6 6 6 5 5 5 4 4 4 3 3 3 2 2 1 0 -0 -1 -2 -2 -3 -3 -4
14 15 15 15 15 15 15 15 14 13 12 11 10 9 8 8 7 7 7 6 6 5 5 5 5 4 4 4 3 3 2 2 1 1 0 -1 -1 -2 -2 -3 -3 -4 -5
14 14 14 15 14 14 14 14 13 12 11 10 9 8 8 7 7 6 6 6 5 5 5 4 4 4 3 3 2 2 1 1 0 -0 -1 -1 -2 -3 -3 -4 -4 -5 -6
13 13 14 14 14 13 13 12 12 11 11 10 9 8 7 7 6 6 5 5 5 4 4 4 3 3 3 2 2 1 1 0 -0 -1 -2 -2 -3 -4 -4 -5 -5 -6 -6
12 12 13 13 13 12 12 11 11 11 10 9 8 7 7 6 6 5 5 4 4 3 3 3 3 2 2 1 1 0 -0 -1 -2 -2 -3 -3 -4 -5 -5 -6 -6 -7 -7
Wind_Speed
14 12 13 13 12 13 15 18 19 18 16 15 15 15 15 13 12 11 16 19 18 18 15 9 8 8 7 7 7 4 3 2 2 2 2 3 3 3 2 2 3 3 3
11 11 11 12 14 16 18 19 20 20 19 18 17 14 11 9 9 8 12 18 19 18 16 11 8 8 7 7 7 5 4 2 2 3 2 1 2 2 2 2 1 2 2
15 13 12 13 14 16 18 18 21 21 22 19 11 8 6 5 8 11 12 14 18 19 17 15 11 9 9 8 8 8 7 4 2 2 4 3 3 2 2 2 1 2 1
14 13 12 12 14 17 16 18 19 20 20 18 17 18 15 14 15 11 12 12 16 17 17 16 13 10 9 9 9 8 6 6 4 2 1 2 3 3 1 2 2 2 1
14 14 13 13 13 13 13 15 16 17 18 20 21 21 17 13 9 8 12 12 12 14 16 15 13 11 9 10 10 8 7 5 5 5 3 2 2 2 3 3 3 3 2
13 12 11 9 9 9 10 11 14 16 17 20 20 21 19 14 13 12 14 12 9 10 13 13 12 11 10 10 10 10 10 7 6 5 4 4 4 4 4 3 3 3 3
10 10 10 10 9 9 10 11 14 15 17 19 20 21 19 18 18 16 15 13 10 9 13 12 12 11 10 10 9 9 9 9 8 7 5 4 4 4 4 3 2 2 3
10 10 10 10 10 10 10 11 13 14 16 18 18 17 16 14 12 14 13 14 13 13 14 14 13 12 12 11 10 8 8 8 8 8 6 4 4 4 4 4 4 1 2
10 10 9 9 9 9 10 12 13 12 14 16 15 15 16 15 14 13 12 12 10 10 13 14 13 12 12 11 11 8 8 8 8 8 7 5 4 4 4 4 4 4 3
9 9 8 8 7 7 7 8 10 11 12 13 14 13 14 15 13 12 13 12 11 11 13 13 12 12 11 11 11 9 8 9 7 6 7 5 4 4 4 4 4 4 5
10 9 7 6 6 6 7 8 8 9 10 11 12 12 12 12 12 12 13 12 11 12 14 14 13 13 12 12 11 9 10 10 8 7 8 7 5 5 4 4 4 4 4
8 7 6 6 6 7 7 8 8 9 9 10 10 11 11 12 12 12 12 12 12 13 13 13 13 13 12 12 12 12 11 11 10 9 8 7 5 6 4 4 5 4 5
6 5 6 6 7 7 7 8 8 8 8 9 10 10 11 12 12 12 12 12 12 12 11 12 13 12 12 12 12 11 11 11 10 9 9 8 7 6 4 5 5 4 4
6 6 6 7 7 8 8 8 8 8 8 9 10 11 11 12 11 11 11 11 12 12 12 11 11 11 11 11 10 10 10 9 8 8 8 8 8 8 7 6 6 5 4
7 8 8 7 7 7 8 8 8 8 9 10 10 10 9 9 10 10 10 10 10 11 10 10 9 9 9 10 10 10 9 9 7 6 6 6 8 9 7 5 5 5 4
9 9 8 8 9 9 9 9 9 9 9 10 9 9 9 9 10 10 10 10 9 9 9 10 10 10 8 12 15 12 9 8 8 6 5 5 6 7 9 9 8 7 5
9 9 9 10 10 10 10 11 10 9 10 9 9 9 10 10 10 10 10 10 10 9 9 9 9 9 9 13 15 15 9 8 7 7 5 4 4 6 4 7 8 8 10
9 9 9 9 8 7 8 9 9 10 10 10 9 9 10 10 10 10 10 9 8 9 8 8 9 8 8 12 13 13 8 6 6 6 6 5 4 4 4 4 4 5 6
9 9 8 8 8 9 10 11 10 10 10 10 10 10 11 11 11 10 9 8 8 8 7 7 8 8 7 10 11 12 7 5 4 4 4 4 4 6 6 4 5 5 6
6 6 5 6 9 10 12 12 11 11 11 10 10 10 10 11 11 10 9 6 8 8 8 7 6 7 6 9 10 11 6 5 3 2 2 4 4 5 5 3 4 6 6
6 6 7 8 9 11 13 12 11 11 9 9 10 9 10 10 10 9 7 9 9 9 8 7 5 5 6 8 9 10 6 5 4 3 2 2 4 5 6 5 3 7 6
5 6 7 7 8 11 13 12 10 9 10 11 11 10 9 9 9 10 9 9 10 10 8 7 6 4 3 5 7 8 6 6 4 3 2 3 4 5 5 5 6 9 7
6 6 8 9 8 9 12 13 10 12 13 12 11 11 10 9 9 11 11 8 8 8 7 6 5 4 3 3 5 6 5 5 3 2 2 2 2 2 3 5 7 5 2
6 7 10 11 9 8 9 11 13 13 14 14 12 11 11 10 8 8 8 8 7 7 6 6 5 4 3 2 2 2 2 3 2 2 1 1 2 2 2 3 4 2 2
6 8 10 12 11 10 11 12 13 15 15 14 12 11 10 11 9 8 6 7 5 7 7 6 6 6 4 3 5 4 3 3 3 3 2 1 1 1 2 2 2 2 3
8 9 10 12 12 13 12 11 12 15 16 14 11 10 9 9 9 10 9 11 9 11 10 9 7 4 5 6 5 4 3 3 3 3 1 0 1 1 2 3 3 3 3
Wind_Direction
232 226 216 208 200 196 195 196 197 197 191 193 195 197 201 198 197 196 193 191 191 189 186 185 178 175 177 176 164 145 141 125 123 103 41 15 30 46 35 57 75 67 72
235 229 218 208 203 201 200 200 199 196 193 197 199 200 195 194 195 191 193 193 192 190 190 185 183 180 175 169 166 154 142 134 136 137 117 12 345 4 21 25 57 43 48
227 227 219 212 206 206 204 203 201 198 197 194 184 171 158 156 182 195 198 197 194 192 190 189 184 181 177 181 179 171 159 161 152 141 148 159 220 281 327 348 4 351 358
226 224 218 215 210 211 206 204 201 198 195 187 184 184 191 197 199 195 195 191 193 192 191 188 185 183 182 181 182 175 167 154 162 149 110 139 151 158 277 312 321 327 307
226 226 219 215 214 208 202 202 198 196 191 188 190 192 198 199 184 172 180 187 191 192 191 189 186 185 186 183 177 173 173 168 164 163 154 134 97 127 167 252 299 319 298
228 229 224 212 208 197 193 191 191 193 189 190 191 195 196 186 174 178 186 189 188 190 191 188 187 186 185 184 182 179 177 177 168 166 163 161 163 179 175 207 243 269 288
224 223 216 206 198 189 187 185 187 191 189 190 193 197 196 189 187 186 188 186 186 191 193 188 188 187 186 182 175 176 179 177 174 177 180 177 174 160 160 168 204 246 287
220 216 209 202 197 191 185 183 186 190 188 191 195 195 192 192 193 188 186 189 193 193 188 187 188 186 181 177 174 175 179 177 179 181 175 177 181 169 167 166 164 217 286
218 213 207 198 192 187 186 185 185 186 189 192 191 191 191 191 190 186 184 188 189 183 181 184 183 181 179 176 173 179 177 174 180 180 179 179 184 178 177 171 170 173 229
213 210 204 197 190 186 180 175 181 185 187 188 189 191 191 191 186 181 183 184 180 175 176 180 180 179 177 176 175 175 173 173 177 175 176 183 181 179 178 180 181 182 190
207 204 199 190 176 166 166 167 172 174 179 184 184 183 185 183 180 182 184 181 176 175 179 180 178 178 179 177 177 177 172 174 174 174 181 190 180 183 186 181 184 193 186
201 193 185 170 166 167 167 169 170 174 179 178 177 180 177 175 178 181 180 175 176 178 179 176 177 179 179 178 178 177 177 178 181 183 183 192 183 190 189 189 198 203 200
191 180 175 177 178 176 172 171 171 172 168 166 168 171 172 174 179 179 174 173 173 173 173 174 178 179 178 179 180 178 179 182 183 182 186 188 181 198 200 201 207 210 212
191 186 188 190 185 178 174 169 168 164 161 161 166 171 175 177 176 172 170 171 170 171 174 177 178 176 174 175 174 172 174 176 178 180 184 185 190 199 199 206 212 209 214
201 200 199 194 184 177 173 167 164 161 159 161 168 174 170 166 162 163 165 164 166 170 170 168 168 167 169 174 169 169 169 169 172 178 186 191 198 204 202 206 206 199 212
212 207 201 194 189 185 177 169 166 163 160 164 169 161 156 156 159 160 157 157 160 161 161 165 166 168 175 176 175 169 167 168 172 180 187 195 204 217 225 234 230 216 216
211 205 203 201 197 188 175 173 166 157 159 161 159 156 155 156 158 154 153 158 160 156 159 162 163 169 172 173 175 174 165 167 175 178 180 192 208 218 222 246 254 252 252
213 212 207 201 191 168 157 151 149 154 158 158 157 156 155 154 151 151 155 155 153 156 158 160 163 162 170 172 172 169 157 159 171 177 183 193 210 216 218 219 239 251 257
212 210 202 189 168 158 153 146 149 153 157 161 161 160 155 151 151 154 154 149 148 149 150 156 156 156 159 166 165 157 145 153 166 172 178 189 211 241 248 228 240 259 266
218 202 173 158 158 157 149 148 154 158 167 166 160 155 152 151 154 154 147 140 141 141 138 135 144 149 150 157 159 153 145 153 160 164 187 210 228 250 260 233 229 258 264
210 179 158 164 166 153 149 150 154 166 160 145 140 141 144 145 143 136 134 134 130 127 126 124 122 130 141 152 157 157 154 162 164 179 203 229 254 266 270 268 241 268 287
184 163 155 156 150 151 149 149 156 147 133 132 131 132 132 131 131 128 126 128 130 128 127 123 113 106 123 140 157 163 163 160 163 188 204 225 256 271 279 284 290 298 309
174 160 149 141 140 151 150 147 146 137 131 127 127 125 121 120 128 131 131 129 130 132 135 134 133 128 118 138 152 157 156 157 152 172 205 242 270 289 297 301 305 314 317
161 150 143 141 142 143 138 136 136 135 130 127 126 125 123 118 114 118 127 132 136 135 136 138 140 134 124 129 137 136 133 128 118 106 72 31 7 4 327 314 316 314 291
153 153 151 146 142 135 128 130 135 132 126 125 125 123 121 121 114 106 109 122 133 147 147 152 151 149 157 176 160 145 141 142 145 119 89 62 27 342 321 314 303 302 310
147 142 139 137 135 132 130 132 135 133 130 129 129 127 125 122 120 113 94 81 97 106 110 119 123 118 121 122 123 117 108 104 112 99 94 100 287 282 287 292 296 294 294
Height
1444 1447 1450 1454 1457 1461 1464 1468 1471 1475 1479 1483 1486 1490 1493 1496 1500 1504 1509 1513 1516 1519 1522 1525 1528 1530 1533 1535 1536 1538 1539 1540 1541 1541 1541 1540 1540 1540 1540 1540 1540 1539 1539
1437 1440 1444 1447 1450 1453 1457 1460 1464 1468 1472 1475 1479 1483 1487 1491 1495 1500 1504 1508 1512 1515 1518 1521 1524 1527 1530 1532 1533 1535 1537 1538 1539 1539 1539 1539 1539 1538 1538 1538 1538 1538 1537
1429 1432 1436 1439 1442 1445 1449 1453 1456 1460 1464 1468 1473 1478 1483 1487 1491 1494 1497 1502 1506 1510 1514 1517 1521 1523 1526 1528 1530 1532 1534 1535 1536 1537 1538 1537 1537 1537 1537 1536 1536 1536 1535
1421 1424 1428 1431 1434 1438 1442 1445 1449 1452 1456 1461 1465 1469 1473 1476 1480 1485 1490 1496 1501 1505 1509 1513 1516 1519 1522 1524 1527 1529 1531 1532 1533 1534 1535 1536 1535 1535 1535 1535 1534 1534 1533
1413 1416 1419 1423 1427 1430 1434 1438 1442 1445 1449 1453 1457 1462 1466 1471 1476 1481 1486 1491 1495 1500 1504 1508 1512 1515 1518 1520 1523 1525 1527 1529 1530 1531 1531 1532 1532 1532 1532 1532 1532 1531 1531
1405 1408 1411 1415 1419 1423 1426 1430 1434 1438 1442 1446 1451 1455 1460 1464 1469 1474 1479 1485 1490 1494 1499 1503 1506 1510 1513 1516 1519 1521 1523 1525 1526 1527 1528 1529 1529 1529 1529 1529 1528 1528 1527
1398 1400 1403 1407 1411 1416 1420 1423 1427 1431 1435 1440 1444 1449 1454 1459 1463 1468 1473 1478 1483 1488 1492 1497 1501 1505 1508 1512 1514 1517 1519 1521 1522 1523 1524 1525 1525 1526 1526 1525 1524 1524 1523
1391 1394 1397 1401 1405 1410 1414 1417 1421 1425 1429 1433 1438 1443 1448 1453 1458 1463 1468 1473 1477 1482 1487 1492 1496 1500 1504 1507 1509 1512 1514 1516 1518 1519 1520 1521 1521 1522 1522 1522 1522 1520 1519
1385 1389 1392 1396 1400 1404 1408 1412 1416 1420 1424 1428 1433 1437 1442 1447 1452 1458 1463 1468 1473 1478 1482 1487 1491 1495 1498 1502 1504 1507 1509 1511 1513 1515 1516 1517 1518 1518 1518 1518 1518 1517 1514
1380 1384 1388 1392 1396 1400 1404 1408 1411 1415 1419 1423 1427 1432 1437 1442 1447 1453 1458 1463 1468 1473 1477 1481 1486 1490 1493 1496 1499 1502 1504 1507 1509 1510 1512 1513 1513 1514 1514 1514 1513 1513 1511
1375 1380 1384 1388 1392 1396 1399 1403 1407 1411 1415 1419 1423 1427 1432 1437 1442 1448 1453 1458 1463 1468 1472 1476 1480 1484 1488 1491 1494 1497 1499 1502 1504 1505 1507 1508 1509 1509 1509 1509 1509 1508 1507
1372 1376 1381 1385 1388 1392 1396 1400 1404 1407 1411 1415 1419 1423 1428 1433 1438 1443 1448 1454 1458 1463 1467 1472 1475 1479 1483 1486 1489 1491 1494 1497 1499 1501 1502 1503 1504 1504 1505 1505 1504 1504 1502
1370 1374 1378 1382 1385 1389 1393 1397 1400 1404 1408 1411 1415 1419 1424 1429 1434 1439 1444 1449 1454 1458 1463 1467 1470 1474 1478 1481 1484 1487 1490 1492 1494 1496 1497 1499 1499 1500 1500 1500 1499 1499 1497
1367 1371 1375 1379 1383 1387 1390 1394 1397 1401 1405 1408 1412 1416 1420 1425 1430 1435 1440 1445 1450 1454 1458 1462 1466 1469 1473 1476 1479 1482 1485 1487 1489 1491 1492 1494 1494 1495 1495 1495 1494 1493 1491
1365 1369 1372 1376 1380 1384 1387 1391 1395 1399 1402 1405 1409 1413 1418 1422 1427 1431 1436 1441 1446 1450 1454 1458 1462 1465 1468 1471 1474 1477 1480 1482 1484 1486 1487 1489 1489 1490 1490 1489 1489 1487 1486
1362 1366 1370 1374 1377 1381 1385 1389 1392 1396 1400 1403 1407 1411 1415 1419 1424 1428 1433 1438 1442 1446 1450 1454 1457 1461 1463 1467 1470 1473 1475 1477 1479 1481 1483 1484 1484 1485 1484 1484 1483 1482 1480
1360 1363 1367 1371 1374 1378 1382 1386 1390 1394 1397 1401 1405 1408 1412 1416 1421 1425 1430 1434 1439 1443 1447 1450 1453 1457 1460 1463 1465 1468 1470 1473 1475 1476 1478 1478 1479 1479 1479 1478 1477 1476 1474
1358 1361 1365 1368 1372 1376 1380 1384 1388 1391 1395 1398 1402 1406 1410 1414 1418 1423 1427 1432 1436 1440 1443 1447 1450 1453 1456 1458 1461 1463 1466 1468 1470 1471 1472 1473 1474 1474 1473 1472 1471 1470 1468
1354 1358 1361 1365 1369 1373 1377 1381 1385 1388 1392 1396 1399 1403 1407 1411 1416 1420 1424 1429 1433 1437 1440 1443 1446 1449 1452 1455 1457 1459 1461 1463 1465 1466 1467 1468 1468 1468 1467 1465 1464 1462 1462
1350 1354 1357 1361 1365 1369 1374 1378 1381 1385 1389 1393 1397 1401 1405 1409 1413 1418 1422 1426 1430 1434 1437 1440 1443 1446 1448 1451 1453 1455 1457 1459 1460 1461 1462 1462 1462 1462 1460 1459 1457 1456 1454
1345 1349 1353 1357 1361 1365 1370 1374 1378 1382 1387 1391 1395 1399 1403 1408 1412 1416 1420 1424 1428 1431 1434 1437 1440 1443 1445 1448 1450 1451 1453 1454 1455 1456 1457 1457 1456 1456 1455 1453 1452 1450 1448
1339 1343 1348 1352 1357 1361 1366 1370 1375 1380 1384 1389 1393 1397 1402 1406 1410 1414 1418 1422 1425 1429 1432 1435 1437 1440 1442 1444 1446 1447 1449 1450 1450 1451 1451 1451 1451 1450 1449 1448 1446 1444 1442
1334 1338 1343 1347 1353 1357 1362 1367 1372 1377 1382 1386 1391 1395 1400 1404 1408 1412 1416 1420 1423 1426 1429 1432 1434 1437 1439 1441 1442 1444 1445 1445 1446 1446 1446 1446 1445 1444 1443 1442 1440 1438 1436
1329 1333 1338 1343 1349 1354 1359 1364 1369 1374 1379 1384 1389 1394 1398 1402 1407 1411 1415 1418 1421 1424 1427 1429 1432 1434 1436 1437 1439 1440 1440 1441 1441 1441 1441 1440 1440 1439 1437 1436 1434 1432 1430
1324 1330 1335 1340 1346 1351 1357 1362 1368 1373 1377 1383 1387 1392 1397 1401 1405 1409 1414 1417 1420 1423 1426 1428 1430 1431 1433 1434 1435 1436 1436 1436 1437 1436 1436 1435 1434 1433 1432 1430 1428 1427 1425
1320 1326 1331 1337 1343 1349 1355 1361 1366 1371 1376 1381 1386 1391 1395 1400 1404 1408 1412 1415 1419 1421 1424 1426 1427 1428 1430 1431 1431 1432 1432 1432 1432 1432 1430 1430 1429 1427 1426 1424 1423 1421 1419